BEIDOU-3 M26 (C48)

Last updated on Mon Jun 22 2026 00:03:31 GMT+0000 (Coordinated Universal Time)

1 58655U 23207B 26171.85548296 -.00000079 00000+0 00000+0 0 9992 2 58655 55.7582 62.1656 0002952 321.4891 38.5283 1.86229739 16895
UTC large
Height (km)
Speed (km/s)
/
Latitude / Longitude
Inclination (degrees)
Orbital Period (minutes)
Azimuth
Elevation
Range (km)
Doppler Factor

Next 0 passes for location: London (51.5072 / 0.1276)

No passes found over London.
BEIDOU-3 M26 (C48)